Terug naar catalogus

STARLINK-37622

ActiefCommunicatieVLEO
NORAD 69829·PAYLOAD·🇺🇸 United States

Gelanceerd Jul 5, 2026 vanaf Cape Canaveral Space Force Station

Loading…

Volgende Passages (komende 24 uur)

TLE

VersSource: CelesTrak SupGP

Epoch: Sep 15, 2026, 04:35 UTC

1 69829C 26154L   26258.19145833  .00072831  00000+0  21515-2 0  2583
2 69829  53.1597 356.6382 0001240  91.1640 204.3092 15.34359291    10

Volg STARLINK-37622 in realtime met AllMySat

Download on the App Store